| time (UTC) | temp F | wind direction | speed MPH | gust MPH | rain 1hr in | rain 24hr in | rain mn in | humidity % | barometer mb |
| 20260505080046 | 62 | 259 | 1.0 | 8.0 | 0.00 | 0.00 | 0.00 | 60 | 1006.8 |
| 20260505074543 | 62 | 239 | 2.0 | 10.0 | 0.00 | 0.00 | 0.00 | 58 | 1006.8 |
| 20260505073048 | 62 | 210 | 3.0 | 10.0 | 0.00 | 0.00 | 0.00 | 57 | 1006.7 |
| 20260505071542 | 62 | 219 | 1.0 | 7.0 | 0.00 | 0.00 | 0.00 | 58 | 1006.6 |
| 20260505070042 | 62 | 146 | 0.0 | 7.0 | 0.00 | 0.00 | 0.00 | 57 | 1006.5 |
| 20260505064601 | 62 | 221 | 4.0 | 9.0 | 0.00 | 0.00 | 0.00 | 56 | 1006.6 |
| 20260505063040 | 62 | 238 | 3.0 | 12.0 | 0.00 | 0.00 | 0.00 | 56 | 1006.6 |
| 20260505061538 | 62 | 232 | 3.0 | 12.0 | 0.00 | 0.00 | 0.00 | 56 | 1006.6 |
| 20260505060036 | 61 | 219 | 2.0 | 9.0 | 0.00 | 0.00 | 0.00 | 56 | 1006.7 |
| 20260505054546 | 61 | 226 | 0.0 | 13.0 | 0.00 | 0.00 | 0.00 | 57 | 1006.7 |
| 20260505053034 | 61 | 247 | 1.0 | 5.0 | 0.00 | 0.00 | 0.00 | 57 | 1006.7 |
| 20260505051534 | 61 | 221 | 2.0 | 7.0 | 0.00 | 0.00 | 0.00 | 57 | 1007.0 |
| 20260505041529 | 61 | 217 | 1.0 | 10.0 | 0.00 | 0.00 | 0.00 | 55 | 1006.9 |
| 20260505040026 | 61 | 211 | 1.0 | 9.0 | 0.00 | 0.00 | 0.00 | 56 | 1006.8 |
| 20260505034527 | 60 | 158 | 0.0 | 5.0 | 0.00 | 0.00 | 0.00 | 57 | 1006.7 |
| 20260505033027 | 59 | 146 | 0.0 | 2.0 | 0.00 | 0.00 | 0.00 | 57 | 1006.8 |
| 20260505031525 | 59 | 146 | 0.0 | 1.0 | 0.00 | 0.00 | 0.00 | 58 | 1006.8 |
| 20260505030041 | 58 | 146 | 0.0 | 0.0 | 0.00 | 0.00 | 0.00 | 59 | 1006.8 |
| 20260505024524 | 58 | 146 | 0.0 | 3.0 | 0.00 | 0.00 | 0.00 | 61 | 1006.9 |
| 20260505023027 | 57 | 146 | 0.0 | 3.0 | 0.00 | 0.00 | 0.00 | 63 | 1007.1 |
| 20260505021524 | 57 | 146 | 0.0 | 4.0 | 0.00 | 0.00 | 0.00 | 63 | 1007.1 |
| 20260505020023 | 57 | 146 | 1.0 | 4.0 | 0.00 | 0.00 | 0.00 | 61 | 1007.2 |
| 20260505014525 | 59 | 146 | 2.0 | 5.0 | 0.00 | 0.00 | 0.00 | 57 | 1007.3 |
| 20260505013022 | 60 | 148 | 3.0 | 5.0 | 0.00 | 0.00 | 0.00 | 54 | 1007.2 |
| 20260505011523 | 60 | 149 | 3.0 | 4.0 | 0.00 | 0.00 | 0.00 | 56 | 1007.3 |
| 20260505010021 | 61 | 158 | 2.0 | 4.0 | 0.00 | 0.00 | 0.00 | 55 | 1007.2 |
| 20260505004538 | 61 | 169 | 3.0 | 4.0 | 0.00 | 0.00 | 0.00 | 56 | 1007.0 |
| 20260505003021 | 60 | 221 | 1.0 | 2.0 | 0.00 | 0.00 | 0.00 | 56 | 1006.7 |
| 20260505001520 | 63 | 239 | 0.0 | 1.0 | 0.00 | 0.00 | 0.00 | 54 | 1006.6 |
| 20260505000019 | 65 | 239 | 0.0 | 1.0 | 0.00 | 0.00 | 0.00 | 49 | 1006.6 |
| 20260504234520 | 66 | 239 | 0.0 | 0.0 | 0.00 | 0.00 | 0.00 | 48 | 1006.6 |
| 20260504233022 | 68 | 239 | 0.0 | 0.0 | 0.00 | 0.00 | 0.00 | 46 | 1006.6 |
| 20260504231518 | 70 | 271 | 0.0 | 1.0 | 0.00 | 0.00 | 0.00 | 42 | 1006.5 |
| 20260504230018 | 70 | 271 | 1.0 | 5.0 | 0.00 | 0.00 | 0.00 | 39 | 1006.6 |
| 20260504224517 | 70 | 275 | 2.0 | 8.0 | 0.00 | 0.00 | 0.00 | 39 | 1006.4 |
| 20260504223016 | 71 | 223 | 0.0 | 7.0 | 0.00 | 0.00 | 0.00 | 42 | 1006.5 |
| 20260504221516 | 71 | 225 | 1.0 | 8.0 | 0.00 | 0.00 | 0.00 | 40 | 1006.5 |
| 20260504220014 | 70 | 219 | 4.0 | 8.0 | 0.00 | 0.00 | 0.00 | 40 | 1006.5 |
| 20260504214512 | 70 | 282 | 5.0 | 10.0 | 0.00 | 0.00 | 0.00 | 40 | 1006.6 |
| 20260504213026 | 69 | 272 | 2.0 | 8.0 | 0.00 | 0.00 | 0.00 | 41 | 1006.8 |
| 20260504211513 | 70 | 222 | 3.0 | 10.0 | 0.00 | 0.00 | 0.00 | 44 | 1006.8 |
| 20260504210008 | 70 | 232 | 3.0 | 18.0 | 0.00 | 0.00 | 0.00 | 42 | 1006.8 |
| 20260504204508 | 70 | 247 | 8.0 | 17.0 | 0.00 | 0.00 | 0.00 | 40 | 1006.9 |
| 20260504203004 | 69 | 252 | 10.0 | 20.0 | 0.00 | 0.00 | 0.00 | 41 | 1007.1 |
| 20260504201503 | 69 | 250 | 7.0 | 14.0 | 0.00 | 0.00 | 0.00 | 44 | 1007.2 |
| 20260504200004 | 69 | 262 | 3.0 | 12.0 | 0.00 | 0.00 | 0.00 | 45 | 1007.3 |
| 20260504194605 | 70 | 272 | 7.0 | 16.0 | 0.00 | 0.00 | 0.00 | 43 | 1007.6 |
| 20260504081551 | 41 | 153 | 1.0 | 4.0 | 0.00 | 0.00 | 0.00 | 96 | 1011.0 |